TimeEDT,TemperatureF,Dew PointF,Humidity,Sea Level PressureIn,VisibilityMPH,Wind Direction,Wind SpeedMPH,Gust SpeedMPH,PrecipitationIn,Events,Conditions,WindDirDegrees,DateUTC
12:26 AM,55.4,53.6,94,29.71,4.0,SE,13.8,-,0.06,Rain-Thunderstorm,Heavy Thunderstorms and Rain,130,2013-03-24 04:26:00
12:37 AM,55.4,53.6,94,29.66,2.5,SE,17.3,32.2,0.33,Rain-Thunderstorm,Heavy Thunderstorms and Rain,130,2013-03-24 04:37:00
12:43 AM,55.4,53.6,94,29.65,3.0,ESE,15.0,32.2,0.37,Rain-Thunderstorm,Heavy Thunderstorms and Rain,110,2013-03-24 04:43:00
12:51 AM,55.9,53.1,90,29.66,6.0,East,10.4,21.9,0.40,Rain-Thunderstorm,Light Rain,90,2013-03-24 04:51:00
1:31 AM,55.4,53.6,94,29.64,5.0,SE,12.7,-,0.05,Rain,Light Rain,130,2013-03-24 05:31:00
1:37 AM,55.4,53.6,94,29.65,2.5,SE,10.4,18.4,0.17,Rain-Thunderstorm,Heavy Thunderstorms and Rain,130,2013-03-24 05:37:00
1:47 AM,55.4,53.6,94,29.65,6.0,SE,3.5,-,0.19,Rain,Light Rain,130,2013-03-24 05:47:00
1:51 AM,55.9,53.1,90,29.63,4.0,SE,11.5,16.1,0.22,Rain,Rain,130,2013-03-24 05:51:00
2:07 AM,55.4,53.6,94,29.65,4.0,ENE,4.6,-,0.05,Rain-Thunderstorm,Light Thunderstorms and Rain,70,2013-03-24 06:07:00
2:24 AM,55.4,53.6,94,29.64,5.0,Variable,4.6,-,0.09,Rain-Thunderstorm,Light Rain,0,2013-03-24 06:24:00
2:46 AM,55.4,53.6,94,29.65,3.0,North,4.6,-,0.12,Rain-Thunderstorm,Thunderstorms and Rain,10,2013-03-24 06:46:00
2:51 AM,55.0,53.1,93,29.68,3.0,NNW,12.7,-,0.22,Rain-Thunderstorm,Light Thunderstorms and Rain,340,2013-03-24 06:51:00
3:02 AM,55.4,53.6,94,29.64,5.0,ENE,5.8,-,0.00,Rain-Thunderstorm,Light Thunderstorms and Rain,60,2013-03-24 07:02:00
3:28 AM,55.4,53.6,94,29.63,3.0,NE,6.9,-,0.13,Rain-Thunderstorm,Heavy Thunderstorms and Rain,40,2013-03-24 07:28:00
3:45 AM,55.4,53.6,94,29.62,2.5,NE,6.9,-,0.18,Rain-Thunderstorm,Light Rain,40,2013-03-24 07:45:00
3:51 AM,55.0,53.1,93,29.59,3.0,East,8.1,-,0.18,Rain-Thunderstorm,Light Rain,80,2013-03-24 07:51:00
4:02 AM,55.4,53.6,94,29.61,5.0,NNE,6.9,-,0.03,Rain-Thunderstorm,Rain,30,2013-03-24 08:02:00
4:27 AM,55.4,53.6,94,29.60,8.0,ENE,4.6,-,0.08,Rain,Light Rain,60,2013-03-24 08:27:00
4:39 AM,55.4,53.6,94,29.59,4.0,East,6.9,-,0.13,Rain,Light Rain,80,2013-03-24 08:39:00
4:51 AM,55.0,53.1,93,29.59,10.0,ENE,5.8,-,0.13,Rain,Light Rain,70,2013-03-24 08:51:00
5:09 AM,55.4,53.6,94,29.58,6.0,East,8.1,-,0.01,Rain,Light Rain,80,2013-03-24 09:09:00
5:51 AM,54.0,52.0,93,29.57,7.0,East,9.2,17.3,0.03,,Overcast,100,2013-03-24 09:51:00
6:04 AM,53.6,51.8,94,29.56,10.0,East,10.4,-,0.00,Rain,Light Rain,100,2013-03-24 10:04:00
6:32 AM,53.6,51.8,94,29.55,10.0,ESE,10.4,-,0.00,,Overcast,110,2013-03-24 10:32:00
6:51 AM,53.1,51.1,93,29.55,10.0,East,10.4,-,0.00,,Overcast,90,2013-03-24 10:51:00
7:51 AM,53.1,51.1,93,29.54,9.0,East,3.5,-,0.01,,Overcast,80,2013-03-24 11:51:00
8:51 AM,53.6,51.8,94,29.57,4.0,ENE,3.5,-,N/A,,Overcast,60,2013-03-24 12:51:00
9:08 AM,53.6,51.8,94,29.58,2.0,NNE,3.5,-,N/A,,Overcast,30,2013-03-24 13:08:00
9:16 AM,53.6,51.8,94,29.60,1.5,NNE,3.5,-,N/A,,Overcast,30,2013-03-24 13:16:00
9:51 AM,54.0,51.1,90,29.61,2.0,NE,4.6,-,N/A,,Overcast,40,2013-03-24 13:51:00
10:07 AM,53.6,51.8,94,29.61,3.0,NE,3.5,-,N/A,,Overcast,50,2013-03-24 14:07:00
10:51 AM,55.0,52.0,89,29.62,10.0,North,3.5,-,N/A,,Overcast,10,2013-03-24 14:51:00
11:51 AM,57.0,52.0,83,29.61,10.0,Calm,Calm,-,N/A,,Overcast,0,2013-03-24 15:51:00
12:38 PM,59.0,53.6,82,29.61,10.0,North,4.6,-,N/A,,Overcast,10,2013-03-24 16:38:00
12:51 PM,59.0,52.0,78,29.62,10.0,WNW,6.9,-,N/A,,Overcast,300,2013-03-24 16:51:00
1:51 PM,60.1,53.1,78,29.63,10.0,WNW,8.1,-,N/A,,Overcast,300,2013-03-24 17:51:00
2:21 PM,62.6,53.6,72,29.62,10.0,West,8.1,-,N/A,,Overcast,270,2013-03-24 18:21:00
2:51 PM,62.1,53.1,72,29.60,10.0,WNW,6.9,-,N/A,,Mostly Cloudy,300,2013-03-24 18:51:00
3:51 PM,64.9,54.0,68,29.58,10.0,West,9.2,-,N/A,,Mostly Cloudy,270,2013-03-24 19:51:00
4:51 PM,68.0,54.0,61,29.56,10.0,West,10.4,-,N/A,,Mostly Cloudy,280,2013-03-24 20:51:00
4:58 PM,68.0,53.6,60,29.57,10.0,West,10.4,-,N/A,,Overcast,260,2013-03-24 20:58:00
5:51 PM,69.8,53.6,56,29.57,10.0,West,13.8,19.6,N/A,,Mostly Cloudy,270,2013-03-24 21:51:00
6:51 PM,68.0,53.1,59,29.56,10.0,WNW,17.3,26.5,N/A,,Scattered Clouds,300,2013-03-24 22:51:00
7:51 PM,64.9,51.1,61,29.60,10.0,WNW,26.5,35.7,N/A,,Mostly Cloudy,290,2013-03-24 23:51:00
8:51 PM,59.0,44.1,58,29.65,10.0,WNW,21.9,32.2,N/A,,Partly Cloudy,290,2013-03-25 00:51:00
9:51 PM,55.9,39.9,55,29.69,10.0,WNW,16.1,24.2,N/A,,Clear,300,2013-03-25 01:51:00
10:51 PM,54.0,36.0,51,29.73,10.0,NW,19.6,33.4,N/A,,Mostly Cloudy,320,2013-03-25 02:51:00
11:51 PM,48.9,30.9,50,29.78,10.0,NW,23.0,34.5,N/A,,Clear,310,2013-03-25 03:51:00